Time,TemperatureF,DewpointF,PressureIn,WindDirection,WindDirectionDegrees,WindSpeedMPH,WindSpeedGustMPH,Humidity,HourlyPrecipIn,Conditions,Clouds,dailyrainin,SoftwareType,DateUTC
2013-10-17 00:09:00,49.3,45.0,29.97,WNW,290,0.0,0.0,84,0.01,,,0.01,weatherlink.com 1.10,2013-10-17 05:09:00,
2013-10-17 00:24:00,48.9,45.0,29.97,WNW,290,0.0,0.0,86,0.01,,,0.01,weatherlink.com 1.10,2013-10-17 05:24:00,
2013-10-17 00:39:00,48.5,45.0,29.96,WNW,290,0.0,0.0,88,0.01,,,0.01,weatherlink.com 1.10,2013-10-17 05:39:00,
2013-10-17 00:55:00,48.3,46.0,29.96,WNW,290,0.0,0.0,90,0.01,,,0.01,weatherlink.com 1.10,2013-10-17 05:55:00,
2013-10-17 01:10:00,48.0,45.0,29.95,WNW,290,0.0,0.0,90,0.00,,,0.01,weatherlink.com 1.10,2013-10-17 06:10:00,
2013-10-17 01:25:00,47.9,46.0,29.95,WNW,290,0.0,0.0,91,0.00,,,0.01,weatherlink.com 1.10,2013-10-17 06:25:00,
2013-10-17 01:40:00,48.1,45.0,29.95,SW,219,0.0,0.0,90,0.00,,,0.01,weatherlink.com 1.10,2013-10-17 06:40:00,
2013-10-17 01:55:00,48.2,46.0,29.96,SW,219,0.0,1.0,90,0.00,,,0.01,weatherlink.com 1.10,2013-10-17 06:55:00,
2013-10-17 02:10:00,48.2,46.0,29.95,SW,217,0.0,1.0,90,0.00,,,0.01,weatherlink.com 1.10,2013-10-17 07:10:00,
2013-10-17 02:25:00,48.1,45.0,29.95,SW,217,0.0,1.0,89,0.00,,,0.01,weatherlink.com 1.10,2013-10-17 07:25:00,
2013-10-17 02:40:00,48.1,45.0,29.95,SW,218,0.0,0.0,90,0.00,,,0.01,weatherlink.com 1.10,2013-10-17 07:40:00,
2013-10-17 02:55:00,48.0,45.0,29.95,SW,218,0.0,0.0,90,0.00,,,0.01,weatherlink.com 1.10,2013-10-17 07:55:00,
2013-10-17 03:10:00,47.7,45.0,29.94,SW,218,0.0,0.0,89,0.00,,,0.01,weatherlink.com 1.10,2013-10-17 08:10:00,
2013-10-17 03:25:00,47.0,44.0,29.94,SW,218,0.0,0.0,89,0.00,,,0.01,weatherlink.com 1.10,2013-10-17 08:25:00,
2013-10-17 03:40:00,45.9,43.0,29.94,SW,218,0.0,0.0,90,0.00,,,0.01,weatherlink.com 1.10,2013-10-17 08:40:00,
2013-10-17 03:55:00,44.8,42.0,29.93,SW,218,0.0,0.0,91,0.00,,,0.01,weatherlink.com 1.10,2013-10-17 08:55:00,
2013-10-17 04:10:00,43.9,42.0,29.94,SW,218,0.0,0.0,92,0.00,,,0.01,weatherlink.com 1.10,2013-10-17 09:10:00,
2013-10-17 04:25:00,43.4,42.0,29.93,SW,219,0.0,0.0,93,0.00,,,0.01,weatherlink.com 1.10,2013-10-17 09:25:00,
2013-10-17 04:40:00,43.1,42.0,29.93,SW,218,0.0,0.0,94,0.00,,,0.01,weatherlink.com 1.10,2013-10-17 09:40:00,
2013-10-17 04:55:00,42.9,41.0,29.93,SW,218,0.0,0.0,94,0.00,,,0.01,weatherlink.com 1.10,2013-10-17 09:55:00,
2013-10-17 05:10:00,42.8,41.0,29.94,SW,218,0.0,0.0,94,0.00,,,0.01,weatherlink.com 1.10,2013-10-17 10:10:00,
2013-10-17 05:25:00,42.8,41.0,29.94,SW,217,0.0,0.0,94,0.00,,,0.01,weatherlink.com 1.10,2013-10-17 10:25:00,
2013-10-17 05:40:00,42.8,41.0,29.93,SW,217,0.0,1.0,93,0.00,,,0.01,weatherlink.com 1.10,2013-10-17 10:40:00,
2013-10-17 05:55:00,42.8,41.0,29.94,SW,219,0.0,1.0,93,0.00,,,0.01,weatherlink.com 1.10,2013-10-17 10:55:00,
2013-10-17 06:10:00,42.6,41.0,29.93,SW,218,0.0,0.0,92,0.00,,,0.01,weatherlink.com 1.10,2013-10-17 11:10:00,
2013-10-17 06:25:00,42.2,40.0,29.94,SW,219,0.0,0.0,92,0.00,,,0.01,weatherlink.com 1.10,2013-10-17 11:25:00,
2013-10-17 06:40:00,41.7,40.0,29.94,SW,217,0.0,0.0,93,0.00,,,0.01,weatherlink.com 1.10,2013-10-17 11:40:00,
2013-10-17 06:55:00,41.7,40.0,29.93,SSW,210,0.0,1.0,93,0.00,,,0.01,weatherlink.com 1.10,2013-10-17 11:55:00,
2013-10-17 07:10:00,41.9,40.0,29.94,SSW,210,0.0,1.0,93,0.00,,,0.01,weatherlink.com 1.10,2013-10-17 12:10:00,
2013-10-17 07:25:00,41.8,40.0,29.94,SSW,210,0.0,1.0,92,0.00,,,0.01,weatherlink.com 1.10,2013-10-17 12:25:00,
2013-10-17 07:40:00,41.6,40.0,29.94,SSW,210,0.0,0.0,92,0.00,,,0.01,weatherlink.com 1.10,2013-10-17 12:40:00,
2013-10-17 07:55:00,41.6,40.0,29.94,SSW,210,0.0,1.0,92,0.00,,,0.01,weatherlink.com 1.10,2013-10-17 12:55:00,
2013-10-17 08:10:00,41.9,40.0,29.94,SSW,210,0.0,0.0,92,0.00,,,0.01,weatherlink.com 1.10,2013-10-17 13:10:00,
2013-10-17 08:26:00,42.3,40.0,29.95,SSW,210,0.0,1.0,92,0.00,,,0.01,weatherlink.com 1.10,2013-10-17 13:26:00,
2013-10-17 08:40:00,42.9,41.0,29.96,SSW,210,0.0,1.0,91,0.00,,,0.01,weatherlink.com 1.10,2013-10-17 13:40:00,
2013-10-17 08:55:00,44.1,41.0,29.96,SSW,205,0.0,1.0,89,0.00,,,0.01,weatherlink.com 1.10,2013-10-17 13:55:00,
2013-10-17 09:10:00,45.3,41.0,29.96,SSW,205,0.0,1.0,86,0.00,,,0.01,weatherlink.com 1.10,2013-10-17 14:10:00,
2013-10-17 09:25:00,46.4,42.0,29.95,ESE,110,0.0,2.0,84,0.00,,,0.01,weatherlink.com 1.10,2013-10-17 14:25:00,
2013-10-17 09:40:00,47.5,42.0,29.96,ESE,110,0.0,1.0,82,0.00,,,0.01,weatherlink.com 1.10,2013-10-17 14:40:00,
2013-10-17 09:55:00,48.9,42.0,29.95,ESE,108,0.0,3.0,78,0.00,,,0.01,weatherlink.com 1.10,2013-10-17 14:55:00,
2013-10-17 10:10:00,50.9,43.0,29.95,ESE,110,0.0,3.0,75,0.00,,,0.01,weatherlink.com 1.10,2013-10-17 15:10:00,
2013-10-17 10:26:00,53.4,43.0,29.96,ESE,113,0.0,2.0,69,0.00,,,0.01,weatherlink.com 1.10,2013-10-17 15:26:00,
2013-10-17 10:41:00,55.4,44.0,29.96,ESE,110,0.0,3.0,66,0.00,,,0.01,weatherlink.com 1.10,2013-10-17 15:41:00,
2013-10-17 10:56:00,56.5,44.0,29.95,NNE,15,0.0,2.0,64,0.00,,,0.01,weatherlink.com 1.10,2013-10-17 15:56:00,
2013-10-17 11:11:00,56.5,43.0,29.95,SSW,212,4.0,4.0,61,0.00,,,0.01,weatherlink.com 1.10,2013-10-17 16:11:00,
2013-10-17 11:26:00,56.7,44.0,29.95,WSW,243,0.0,2.0,63,0.00,,,0.01,weatherlink.com 1.10,2013-10-17 16:26:00,
2013-10-17 11:41:00,57.3,44.0,29.94,South,179,0.0,3.0,61,0.00,,,0.01,weatherlink.com 1.10,2013-10-17 16:41:00,
2013-10-17 11:56:00,58.1,45.0,29.94,South,179,0.0,1.0,61,0.00,,,0.01,weatherlink.com 1.10,2013-10-17 16:56:00,
2013-10-17 12:11:00,59.0,44.0,29.93,South,180,0.0,6.0,58,0.00,,,0.01,weatherlink.com 1.10,2013-10-17 17:11:00,
2013-10-17 12:26:00,59.8,44.0,29.93,South,181,0.0,5.0,57,0.00,,,0.01,weatherlink.com 1.10,2013-10-17 17:26:00,
2013-10-17 12:41:00,61.1,44.0,29.92,South,184,0.0,7.0,53,0.00,,,0.01,weatherlink.com 1.10,2013-10-17 17:41:00,
2013-10-17 12:56:00,61.9,44.0,29.92,ESE,123,0.0,9.0,53,0.00,,,0.01,weatherlink.com 1.10,2013-10-17 17:56:00,
2013-10-17 13:11:00,62.9,44.0,29.91,SSE,153,1.0,7.0,51,0.00,,,0.01,weatherlink.com 1.10,2013-10-17 18:11:00,
2013-10-17 13:26:00,64.1,44.0,29.90,ESE,103,3.0,7.0,48,0.00,,,0.01,weatherlink.com 1.10,2013-10-17 18:26:00,
2013-10-17 13:41:00,65.0,45.0,29.90,ESE,104,0.0,7.0,49,0.00,,,0.01,weatherlink.com 1.10,2013-10-17 18:41:00,
2013-10-17 13:56:00,65.0,46.0,29.89,ESE,113,0.0,8.0,50,0.00,,,0.01,weatherlink.com 1.10,2013-10-17 18:56:00,
2013-10-17 14:11:00,66.3,45.0,29.88,NNE,16,0.0,5.0,47,0.00,,,0.01,weatherlink.com 1.10,2013-10-17 19:11:00,
2013-10-17 14:26:00,66.3,45.0,29.88,ESE,108,0.0,7.0,46,0.00,,,0.01,weatherlink.com 1.10,2013-10-17 19:26:00,
2013-10-17 14:41:00,66.6,45.0,29.88,NNW,341,1.0,6.0,46,0.00,,,0.01,weatherlink.com 1.10,2013-10-17 19:41:00,
2013-10-17 14:56:00,66.4,44.0,29.87,NW,325,1.0,7.0,45,0.00,,,0.01,weatherlink.com 1.10,2013-10-17 19:56:00,
2013-10-17 15:26:00,65.2,45.0,29.86,ESE,117,0.0,4.0,48,0.00,,,0.01,weatherlink.com 1.10,2013-10-17 20:26:00,
2013-10-17 15:41:00,64.6,45.0,29.86,SE,132,0.0,6.0,49,0.00,,,0.01,weatherlink.com 1.10,2013-10-17 20:41:00,
2013-10-17 15:57:00,64.1,44.0,29.87,SE,124,0.0,3.0,48,0.00,,,0.01,weatherlink.com 1.10,2013-10-17 20:57:00,
2013-10-17 16:12:00,64.3,46.0,29.86,ESE,111,0.0,4.0,51,0.00,,,0.01,weatherlink.com 1.10,2013-10-17 21:12:00,
2013-10-17 16:27:00,64.0,44.0,29.86,NW,315,0.0,2.0,49,0.00,,,0.01,weatherlink.com 1.10,2013-10-17 21:27:00,
2013-10-17 16:42:00,63.9,44.0,29.86,ENE,61,0.0,1.0,49,0.00,,,0.01,weatherlink.com 1.10,2013-10-17 21:42:00,
2013-10-17 16:57:00,63.8,45.0,29.86,ESE,114,0.0,2.0,50,0.00,,,0.01,weatherlink.com 1.10,2013-10-17 21:57:00,
2013-10-17 17:13:00,63.7,43.0,29.86,WNW,282,0.0,3.0,48,0.00,,,0.01,weatherlink.com 1.10,2013-10-17 22:13:00,
2013-10-17 17:26:00,63.1,41.0,29.86,ESE,107,0.0,1.0,45,0.00,,,0.01,weatherlink.com 1.10,2013-10-17 22:26:00,
2013-10-17 17:42:00,62.2,39.0,29.86,West,278,0.0,0.0,42,0.00,,,0.01,weatherlink.com 1.10,2013-10-17 22:42:00,
2013-10-17 17:56:00,61.3,39.0,29.87,NNW,335,0.0,1.0,44,0.00,,,0.01,weatherlink.com 1.10,2013-10-17 22:56:00,
2013-10-17 18:11:00,60.1,39.0,29.87,NNW,335,0.0,0.0,46,0.00,,,0.01,weatherlink.com 1.10,2013-10-17 23:11:00,
2013-10-17 18:26:00,58.5,39.0,29.88,NNW,335,0.0,0.0,49,0.00,,,0.01,weatherlink.com 1.10,2013-10-17 23:26:00,
2013-10-17 18:41:00,57.0,40.0,29.88,NNW,335,0.0,0.0,53,0.00,,,0.01,weatherlink.com 1.10,2013-10-17 23:41:00,
2013-10-17 18:56:00,56.1,40.0,29.88,NNW,335,0.0,0.0,55,0.00,,,0.01,weatherlink.com 1.10,2013-10-17 23:56:00,
2013-10-17 19:11:00,55.3,41.0,29.89,NNW,334,0.0,0.0,58,0.00,,,0.01,weatherlink.com 1.10,2013-10-18 00:11:00,
2013-10-17 19:26:00,54.6,41.0,29.89,NNW,334,0.0,0.0,61,0.00,,,0.01,weatherlink.com 1.10,2013-10-18 00:26:00,
2013-10-17 19:41:00,53.8,42.0,29.90,NNW,335,0.0,0.0,64,0.00,,,0.01,weatherlink.com 1.10,2013-10-18 00:41:00,
2013-10-17 19:56:00,52.5,42.0,29.90,NNW,335,0.0,0.0,67,0.00,,,0.01,weatherlink.com 1.10,2013-10-18 00:56:00,
2013-10-17 20:12:00,52.4,42.0,29.91,NNW,335,0.0,0.0,67,0.00,,,0.01,weatherlink.com 1.10,2013-10-18 01:12:00,
2013-10-17 20:26:00,52.2,41.0,29.91,NNW,334,0.0,0.0,65,0.00,,,0.01,weatherlink.com 1.10,2013-10-18 01:26:00,
2013-10-17 20:41:00,52.0,41.0,29.91,NNW,335,0.0,0.0,67,0.00,,,0.01,weatherlink.com 1.10,2013-10-18 01:41:00,
2013-10-17 20:56:00,51.7,41.0,29.91,NNW,335,0.0,0.0,67,0.00,,,0.01,weatherlink.com 1.10,2013-10-18 01:56:00,
2013-10-17 21:11:00,51.4,40.0,29.92,NNW,335,0.0,0.0,66,0.00,,,0.01,weatherlink.com 1.10,2013-10-18 02:11:00,
2013-10-17 21:26:00,51.7,40.0,29.93,NNW,328,0.0,2.0,65,0.00,,,0.01,weatherlink.com 1.10,2013-10-18 02:26:00,
2013-10-17 21:41:00,52.6,41.0,29.94,NNW,347,0.0,3.0,64,0.00,,,0.01,weatherlink.com 1.10,2013-10-18 02:41:00,
2013-10-17 21:56:00,52.5,41.0,29.95,NW,319,0.0,6.0,66,0.00,,,0.01,weatherlink.com 1.10,2013-10-18 02:56:00,
2013-10-17 22:11:00,52.2,42.0,29.95,WNW,297,1.0,11.0,68,0.00,,,0.01,weatherlink.com 1.10,2013-10-18 03:11:00,
2013-10-17 22:26:00,51.6,42.0,29.96,NW,307,3.0,5.0,70,0.00,,,0.01,weatherlink.com 1.10,2013-10-18 03:26:00,
2013-10-17 22:41:00,50.9,42.0,29.96,WNW,297,1.0,7.0,71,0.00,,,0.01,weatherlink.com 1.10,2013-10-18 03:41:00,
2013-10-17 22:56:00,50.3,42.0,29.97,WNW,300,0.0,6.0,72,0.00,,,0.01,weatherlink.com 1.10,2013-10-18 03:56:00,
2013-10-17 23:11:00,49.7,41.0,29.97,NW,325,1.0,6.0,72,0.00,,,0.01,weatherlink.com 1.10,2013-10-18 04:11:00,
2013-10-17 23:26:00,49.3,41.0,29.98,WNW,284,0.0,9.0,73,0.00,,,0.01,weatherlink.com 1.10,2013-10-18 04:26:00,
2013-10-17 23:42:00,48.9,41.0,29.98,West,277,0.0,5.0,74,0.00,,,0.01,weatherlink.com 1.10,2013-10-18 04:42:00,
2013-10-17 23:57:00,48.5,41.0,29.98,WNW,283,1.0,7.0,75,0.00,,,0.01,weatherlink.com 1.10,2013-10-18 04:57:00,